Location: Newark
(13.6797°N, 8.5297°E)
Time: 04:36:43
(UTC+00:00)

A-11 Canister half - Pass Details

Date: 22 January 2020
Orbit: 1517 x 1683 km, 47.2° (Epoch: 19 February)

Event Time Altitude Azimuth Distance (km) Brightness Sun altitude
Rises 21:14:28 0° 219° (SW) 4,835 12.0 -55.3°
Reaches altitude 10° 21:17:37 10° 218° (SW) 3,827 11.3 -56.0°
Enters shadow 21:19:33 18° 217° (SW) 3,223 10.9 -56.5°
Maximum altitude 21:27:21 84° 131° (SE) 1,578 - -58.3°
Drops below altitude 10° 21:36:45 10° 44° (NE) 3,705 - -60.5°
Sets 21:39:45 0° 43° (NE) 4,674 - -61.2°
